Location: The Saddle
(36.8333°N, 80.3417°W)
Time: 04:57:44
(UTC-04:00)

Vanguard 3 - Pass Details

Date: 26 February 2024
Orbit: 510 x 3234 km, 33.3° (Epoch: 24 April)

Event Time Altitude Azimuth Distance (km) Brightness Sun altitude
Rises 18:59:43 0° 221° (SW) 6,184 12.4 -10.2°
Reaches altitude 10° 19:03:36 10° 216° (SW) 5,460 11.9 -11.0°
Maximum altitude 19:20:17 49° 148° (SSE) 3,813 10.3 -14.3°
Enters shadow 19:34:10 20° 87° (E) 5,169 10.5 -17.1°
